Hourly Weather Rudnica

Today, 10 April, Saturday

Time Temperature Precipitation Wind Pressure Humidity
00:00 -1°C° 0 mm 4 mps 748 mmHg 74%
01:00 -1°C° 0 mm 4 mps 748 mmHg 76%
02:00 -1°C° 0 mm 4 mps 748 mmHg 79%
03:00 -1°C° 0 mm 4 mps 748 mmHg 80%
04:00 -1°C° 0 mm 4 mps 748 mmHg 81%
05:00 -1°C° 0 mm 4 mps 748 mmHg 81%
06:00 0°C° 0 mm 4 mps 748 mmHg 76%
07:00 +1°C° 0 mm 5 mps 748 mmHg 71%
08:00 +3°C° 0 mm 5 mps 748 mmHg 66%
09:00 +4°C° 0 mm 6 mps 748 mmHg 60%
10:00 +5°C° 0 mm 6 mps 748 mmHg 54%
11:00 +8°C° 0 mm 7 mps 747 mmHg 49%
12:00 +8°C° 0 mm 7 mps 747 mmHg 47%
13:00 +9°C° 0 mm 7 mps 747 mmHg 46%
14:00 +9°C° 0 mm 6 mps 747 mmHg 44%
15:00 +9°C° 0 mm 6 mps 747 mmHg 46%
16:00 +9°C° 0 mm 6 mps 747 mmHg 48%
17:00 +8°C° 0 mm 5 mps 746 mmHg 50%
18:00 +7°C° 0 mm 5 mps 747 mmHg 55%
19:00 +6°C° 0 mm 4 mps 747 mmHg 61%
20:00 +5°C° 0 mm 4 mps 747 mmHg 66%
21:00 +4°C° 0 mm 4 mps 747 mmHg 67%
22:00 +4°C° 0 mm 4 mps 748 mmHg 68%
23:00 +4°C° 0 mm 4 mps 748 mmHg 70%

Tomorrow, 11 April, Sunday

Time Temperature Precipitation Wind Pressure Humidity
00:00 +3°C° 0 mm 4 mps 748 mmHg 71%
01:00 +3°C° 0 mm 3 mps 748 mmHg 73%
02:00 +3°C° 0 mm 3 mps 749 mmHg 74%
03:00 +2°C° 0 mm 3 mps 749 mmHg 77%
04:00 +2°C° 0 mm 3 mps 749 mmHg 80%
05:00 +2°C° 0 mm 2 mps 749 mmHg 83%
06:00 +3°C° 0 mm 3 mps 750 mmHg 77%
07:00 +4°C° 0 mm 3 mps 750 mmHg 71%
08:00 +7°C° 0 mm 3 mps 751 mmHg 65%
09:00 +9°C° 0 mm 3 mps 751 mmHg 60%
10:00 +11°C° 0 mm 3 mps 751 mmHg 56%
11:00 +12°C° 0 mm 4 mps 751 mmHg 51%
12:00 +13°C° 0 mm 4 mps 751 mmHg 49%
13:00 +14°C° 0 mm 4 mps 752 mmHg 48%
14:00 +15°C° 0 mm 4 mps 752 mmHg 46%
15:00 +14°C° 0 mm 3 mps 752 mmHg 48%
16:00 +14°C° 0 mm 3 mps 752 mmHg 51%
17:00 +14°C° 0 mm 2 mps 752 mmHg 54%
18:00 +13°C° 0 mm 2 mps 752 mmHg 60%
19:00 +10°C° 0 mm 2 mps 753 mmHg 65%
20:00 +9°C° 0 mm 2 mps 753 mmHg 71%
21:00 +8°C° 0 mm 2 mps 753 mmHg 73%
22:00 +7°C° 0 mm 2 mps 753 mmHg 74%
23:00 +7°C° 0 mm 2 mps 754 mmHg 76%

Day after tomorrow, 12 April, Monday

Time Temperature Precipitation Wind Pressure Humidity
00:00 +6°C° 0 mm 2 mps 754 mmHg 77%
01:00 +6°C° 0 mm 2 mps 754 mmHg 78%
02:00 +5°C° 0 mm 2 mps 754 mmHg 79%
03:00 +5°C° 0 mm 2 mps 754 mmHg 80%
04:00 +5°C° 0 mm 2 mps 754 mmHg 81%
05:00 +4°C° 0 mm 2 mps 753 mmHg 81%
06:00 +6°C° 0 mm 2 mps 753 mmHg 75%
07:00 +7°C° 0 mm 3 mps 753 mmHg 68%
08:00 +9°C° 0 mm 3 mps 753 mmHg 61%
09:00 +10°C° 0 mm 3 mps 753 mmHg 55%
10:00 +12°C° 0 mm 3 mps 752 mmHg 49%
11:00 +13°C° 0 mm 4 mps 752 mmHg 43%
12:00 +13°C° 0 mm 4 mps 751 mmHg 42%
13:00 +13°C° 0 mm 4 mps 751 mmHg 40%
14:00 +14°C° 0 mm 4 mps 750 mmHg 38%
15:00 +12°C° 0 mm 4 mps 750 mmHg 48%
16:00 +11°C° 0 mm 4 mps 750 mmHg 58%
17:00 +10°C° 0 mm 3 mps 749 mmHg 69%
18:00 +9°C° 0.3 mm 3 mps 749 mmHg 76%
19:00 +9°C° 0.3 mm 3 mps 749 mmHg 84%
20:00 +8°C° 0.3 mm 3 mps 749 mmHg 91%
21:00 +8°C° 0 mm 2 mps 749 mmHg 92%
22:00 +8°C° 0 mm 2 mps 749 mmHg 93%
23:00 +7°C° 0 mm 2 mps 748 mmHg 94%

13 April, Tuesday

Time Temperature Precipitation Wind Pressure Humidity
00:00 +7°C° 0 mm 2 mps 748 mmHg 94%
01:00 +8°C° 0 mm 1 mps 748 mmHg 94%
02:00 +8°C° 0 mm 1 mps 748 mmHg 94%
03:00 +8°C° 0 mm 1 mps 747 mmHg 94%
04:00 +8°C° 0 mm 1 mps 747 mmHg 94%
05:00 +8°C° 0 mm 1 mps 747 mmHg 94%
06:00 +9°C° 0.1 mm 1 mps 747 mmHg 92%
07:00 +10°C° 0.1 mm 1 mps 747 mmHg 90%
08:00 +11°C° 0.1 mm 1 mps 746 mmHg 88%
09:00 +11°C° 0.3 mm 1 mps 746 mmHg 88%
10:00 +11°C° 0.3 mm 1 mps 746 mmHg 89%
11:00 +11°C° 0.3 mm 1 mps 746 mmHg 89%
12:00 +12°C° 0 mm 1 mps 746 mmHg 85%
13:00 +13°C° 0 mm 1 mps 746 mmHg 82%
14:00 +14°C° 0 mm 1 mps 745 mmHg 78%
15:00 +13°C° 0.1 mm 1 mps 745 mmHg 82%
16:00 +12°C° 0.1 mm 1 mps 745 mmHg 86%
17:00 +11°C° 0.1 mm 1 mps 745 mmHg 90%
18:00 +11°C° 0 mm 1 mps 745 mmHg 92%
19:00 +10°C° 0 mm 2 mps 745 mmHg 94%
20:00 +10°C° 0 mm 2 mps 745 mmHg 95%
21:00 +10°C° 0.3 mm 2 mps 745 mmHg 96%
22:00 +10°C° 0.3 mm 2 mps 745 mmHg 97%
23:00 +9°C° 0.3 mm 2 mps 744 mmHg 98%

14 April, Wednesday

Time Temperature Precipitation Wind Pressure Humidity
00:00 +10°C° 0.2 mm 1 mps 744 mmHg 98%
01:00 +10°C° 0.2 mm 1 mps 744 mmHg 98%
02:00 +10°C° 0.2 mm 1 mps 744 mmHg 98%
03:00 +10°C° 0 mm 1 mps 744 mmHg 98%
04:00 +9°C° 0 mm 1 mps 744 mmHg 98%
05:00 +8°C° 0 mm 0 mps 744 mmHg 98%
06:00 +9°C° 0.2 mm 0 mps 744 mmHg 97%
07:00 +9°C° 0.2 mm 0 mps 745 mmHg 96%
08:00 +10°C° 0.2 mm 1 mps 745 mmHg 95%
09:00 +11°C° 0.2 mm 1 mps 745 mmHg 93%
10:00 +12°C° 0.2 mm 1 mps 745 mmHg 92%
11:00 +12°C° 0.2 mm 1 mps 745 mmHg 90%
12:00 +12°C° 0.1 mm 1 mps 745 mmHg 88%
13:00 +13°C° 0.1 mm 1 mps 745 mmHg 86%
14:00 +13°C° 0.1 mm 1 mps 745 mmHg 84%
15:00 +13°C° 0.2 mm 2 mps 745 mmHg 86%
16:00 +12°C° 0.2 mm 2 mps 745 mmHg 88%
17:00 +11°C° 0.2 mm 3 mps 745 mmHg 90%
18:00 +10°C° 0.2 mm 3 mps 745 mmHg 91%
19:00 +9°C° 0.2 mm 3 mps 745 mmHg 93%
20:00 +9°C° 0.2 mm 3 mps 745 mmHg 95%
21:00 +8°C° 0.4 mm 3 mps 745 mmHg 95%
22:00 +8°C° 0.4 mm 3 mps 745 mmHg 95%
23:00 +8°C° 0.4 mm 3 mps 745 mmHg 95%

15 April, Thursday

Time Temperature Precipitation Wind Pressure Humidity
00:00 +8°C° 0.3 mm 3 mps 745 mmHg 96%
01:00 +7°C° 0.3 mm 3 mps 745 mmHg 96%
02:00 +7°C° 0.3 mm 3 mps 745 mmHg 96%
03:00 +7°C° 0.3 mm 3 mps 745 mmHg 95%
04:00 +5°C° 0.3 mm 3 mps 746 mmHg 94%
05:00 +5°C° 0.3 mm 4 mps 746 mmHg 93%
06:00 +5°C° 0.1 mm 4 mps 746 mmHg 90%
07:00 +4°C° 0.1 mm 4 mps 746 mmHg 88%
08:00 +4°C° 0.1 mm 4 mps 746 mmHg 86%
09:00 +4°C° 0 mm 4 mps 747 mmHg 84%
10:00 +4°C° 0 mm 4 mps 747 mmHg 82%
11:00 +5°C° 0 mm 4 mps 747 mmHg 80%
12:00 +5°C° 0 mm 4 mps 747 mmHg 77%
13:00 +6°C° 0 mm 4 mps 747 mmHg 75%
14:00 +6°C° 0 mm 4 mps 747 mmHg 73%
15:00 +6°C° 0 mm 4 mps 747 mmHg 72%
16:00 +7°C° 0 mm 4 mps 747 mmHg 71%
17:00 +7°C° 0 mm 4 mps 746 mmHg 69%
18:00 +6°C° 0 mm 4 mps 747 mmHg 70%
19:00 +5°C° 0 mm 4 mps 747 mmHg 70%
20:00 +4°C° 0 mm 4 mps 747 mmHg 70%
21:00 +3°C° 0 mm 4 mps 747 mmHg 70%
22:00 +1°C° 0 mm 4 mps 747 mmHg 70%
23:00 +1°C° 0 mm 4 mps 747 mmHg 70%
Show more